Theta_e
319 322 327 328 323 325 329 344 345 347 346 344 347 358 354 353 353 359 354 351 336 337 335 327 328 332 342 345 345 343 336 326 325 325 325 324 324 325 327 329 328 327 327 330 336 339 340 340 339
318 322 327 328 323 327 328 342 347 345 342 341 348 351 354 355 355 354 353 346 339 336 335 326 332 337 342 345 345 344 341 334 332 331 329 327 325 324 325 326 327 328 327 328 329 332 334 337 338
318 326 327 320 322 326 328 340 345 343 341 338 335 337 341 353 357 354 353 343 334 337 335 327 327 335 340 343 344 345 344 341 340 340 339 337 334 330 326 326 326 324 326 327 328 329 329 330 333
321 325 327 321 323 325 328 343 346 343 341 336 339 339 355 358 356 355 354 352 332 338 335 330 325 325 327 333 338 342 343 343 343 343 342 341 339 338 335 330 327 326 324 324 327 328 329 330 330
324 325 321 322 322 325 328 339 341 343 335 338 341 343 348 360 357 356 353 352 333 337 337 336 333 329 326 324 324 327 330 333 334 334 335 336 336 337 338 336 331 328 327 324 323 325 327 328 328
324 324 321 322 324 327 328 331 342 340 340 345 350 353 360 359 358 355 354 354 350 335 337 338 338 337 335 334 331 329 326 324 324 324 325 327 329 331 332 334 334 331 329 328 327 324 323 323 323
323 320 322 322 324 325 327 334 338 336 338 341 345 353 357 357 354 356 355 356 352 338 336 339 339 339 338 337 337 337 336 335 332 329 327 325 325 325 325 325 327 329 328 328 328 329 329 329 329
324 319 322 322 324 325 327 331 340 336 333 341 345 351 354 354 354 356 356 356 346 341 339 340 340 340 338 337 337 337 336 336 336 336 336 336 336 344 342 338 332 329 333 331 325 324 323 324 324
323 319 320 321 323 325 327 326 338 337 339 338 338 349 353 352 353 355 354 353 349 344 345 343 346 348 345 342 344 344 343 342 342 341 339 346 342 350 351 350 349 347 347 342 339 339 340 345 345
322 320 322 323 324 325 326 325 333 331 332 338 344 352 352 351 351 353 353 353 353 351 347 348 347 346 347 343 343 346 349 347 347 349 350 350 351 350 348 347 344 346 346 345 348 350 349 350 350
322 321 323 325 326 326 325 325 328 328 328 342 349 349 350 350 350 350 352 352 354 354 354 349 348 347 350 344 346 346 344 342 334 346 348 349 350 350 347 344 348 347 344 344 338 345 348 347 346
319 322 323 324 325 325 323 326 325 330 331 342 345 346 348 349 348 349 347 352 355 355 355 352 354 354 350 351 346 344 340 332 332 329 329 336 340 346 343 345 338 342 335 339 339 342 340 345 346
319 320 322 324 326 325 325 324 324 325 330 340 340 340 343 344 345 348 347 349 354 356 357 355 354 353 345 334 331 328 327 326 330 327 319 318 321 323 325 322 326 330 335 329 329 331 335 340 338
321 322 322 323 324 324 323 324 325 325 329 340 340 339 341 342 343 343 344 353 356 356 355 351 346 341 340 337 332 328 324 324 325 318 316 316 316 316 315 315 316 318 320 321 323 325 329 330 333
321 319 321 322 323 321 324 321 322 325 330 338 338 337 338 339 341 340 346 349 351 351 349 347 343 341 338 335 329 317 323 323 319 320 316 317 317 316 315 314 314 314 315 317 315 316 320 322 323
318 317 318 320 321 323 322 321 322 325 332 336 337 336 336 337 339 336 338 343 344 345 344 342 327 339 335 320 315 317 323 322 321 320 319 317 316 316 314 313 313 313 313 313 314 317 318 320 322
316 317 318 321 322 322 320 320 323 325 328 331 332 332 332 332 333 333 333 334 339 339 339 339 326 331 318 315 317 321 324 321 321 319 319 317 316 315 314 313 313 313 313 313 314 315 317 317 317
316 318 318 319 321 321 319 319 321 324 326 327 331 331 330 330 330 331 331 332 335 336 336 331 327 322 316 318 317 321 321 320 320 318 318 317 317 316 316 314 312 312 312 311 312 312 313 314 314
317 318 319 321 321 321 320 320 321 323 323 324 327 330 330 328 327 328 328 330 332 334 332 328 324 324 317 317 318 320 318 321 320 319 319 318 318 317 317 315 313 312 311 310 310 311 312 313 316
317 316 317 318 319 320 322 324 322 322 322 323 325 328 329 328 326 326 325 326 327 327 327 325 322 321 317 315 317 319 321 323 323 320 319 320 319 318 317 317 315 312 311 309 309 310 311 312 316
316 316 316 317 319 319 320 324 322 322 322 324 324 325 326 326 326 325 325 325 326 326 326 325 320 321 317 316 318 323 327 327 325 319 320 321 319 318 318 317 317 315 311 310 308 309 312 313 312
318 319 319 319 319 317 318 318 322 322 322 323 323 324 325 325 325 325 325 326 326 326 326 325 321 321 320 318 318 323 326 326 322 322 323 321 319 318 318 318 317 317 314 310 308 307 309 312 313
319 320 318 320 319 317 317 315 317 320 321 321 320 323 325 325 325 325 324 325 325 326 326 326 324 321 322 321 321 326 328 326 323 326 325 323 320 318 319 318 318 317 315 311 309 307 308 311 313
320 320 318 317 317 317 316 315 316 318 320 321 322 323 323 324 324 325 324 324 326 326 326 327 326 324 322 322 320 325 324 323 327 325 323 321 319 319 319 318 318 317 314 311 309 307 308 310 312
320 319 318 318 317 319 319 318 318 320 321 322 322 324 323 324 324 325 325 327 326 326 326 326 327 327 326 323 321 321 324 324 325 322 322 319 318 319 319 318 318 316 314 310 308 308 308 310 311
318 317 318 321 321 320 319 321 322 320 321 322 326 326 324 324 324 323 325 325 324 324 326 327 327 328 328 326 323 327 324 322 322 323 322 318 318 319 319 318 318 317 315 310 308 308 308 310 311
319 318 317 319 320 320 320 320 321 321 322 322 325 325 325 325 325 325 325 326 326 328 329 328 328 328 328 327 326 324 322 321 319 319 319 319 319 319 318 318 317 317 314 309 308 308 309 310 313
320 320 321 319 319 320 321 321 322 324 323 323 322 323 325 326 326 325 325 326 327 327 328 329 329 328 328 328 327 326 326 323 319 319 320 320 319 318 318 318 317 317 315 310 309 309 310 313 314
322 321 320 320 322 324 323 322 324 327 325 324 322 325 325 325 325 324 325 325 327 328 328 329 330 329 328 328 328 326 325 321 319 321 321 320 319 319 318 318 317 317 313 310 310 311 312 315 316
321 323 321 321 320 321 321 322 321 324 323 324 325 325 325 324 324 325 325 325 327 329 329 330 330 329 328 327 326 324 322 322 322 322 321 320 320 319 319 318 317 316 313 310 310 311 312 316 316
Wind_Speed
11 4 5 5 2 2 3 8 12 6 12 9 13 21 16 17 7 10 25 20 21 20 17 15 16 18 19 17 15 14 14 14 13 12 11 10 9 9 9 8 7 7 6 6 5 6 7 10 13
9 6 9 6 2 2 6 11 14 19 25 33 36 29 28 19 28 30 26 22 20 22 18 17 18 19 19 17 15 14 13 13 12 10 9 8 7 7 6 5 5 4 3 3 3 3 4 6 9
7 3 3 4 4 8 4 7 15 39 41 12 16 20 9 15 16 22 27 23 22 23 20 18 17 17 16 15 14 13 12 11 10 8 7 6 5 4 3 3 3 2 2 1 0 1 3 4 5
4 3 6 0 10 20 6 21 14 24 30 17 23 10 19 22 25 25 20 17 23 22 20 20 18 16 16 15 14 13 11 10 9 8 6 5 4 3 3 2 2 1 1 2 2 2 3 4 4
2 5 3 4 10 16 16 25 41 30 11 26 22 9 14 19 31 23 21 19 20 21 20 19 18 16 15 14 13 12 10 9 8 7 6 5 4 4 4 3 3 3 3 4 4 5 5 5 6
5 4 2 5 11 17 15 17 27 15 37 32 28 22 21 28 26 25 29 23 16 17 19 18 17 15 14 13 12 11 10 8 7 5 4 3 3 3 3 4 5 5 6 6 6 7 8 9 9
5 3 7 8 15 20 16 11 11 19 23 16 33 15 22 25 22 32 30 20 13 13 15 17 16 15 14 12 11 10 9 8 6 5 4 2 1 1 2 3 5 6 8 9 9 10 10 11 12
12 2 7 7 12 18 19 17 19 22 10 37 43 10 21 28 27 31 25 15 8 13 13 12 12 11 10 10 10 9 8 7 6 5 4 3 3 6 2 3 4 6 9 11 12 13 13 14 15
16 2 7 9 14 18 25 15 16 16 39 17 11 37 40 34 33 29 22 18 17 20 18 19 16 14 9 8 7 8 7 7 6 5 4 4 4 2 3 5 7 11 12 12 10 10 10 12 13
10 5 13 10 18 17 23 26 9 15 20 28 30 35 39 35 36 34 29 26 25 25 23 20 18 14 16 10 9 10 11 9 10 7 7 6 6 5 7 9 9 12 11 14 12 8 10 11 11
11 12 11 17 32 25 27 23 19 22 7 33 40 39 37 36 33 34 35 31 30 26 23 20 18 17 15 14 13 11 10 8 5 5 5 5 2 1 2 4 6 6 11 11 12 12 12 13 12
13 19 21 26 36 28 18 20 16 7 19 41 43 40 37 33 29 30 29 37 37 33 27 24 19 17 16 15 13 11 8 4 1 2 5 7 11 10 9 10 6 3 5 6 9 7 11 12 15
11 12 24 26 34 35 34 8 13 18 38 40 41 38 35 30 27 28 25 32 41 36 34 28 24 26 21 20 17 15 11 8 7 8 5 8 9 8 10 11 14 15 15 14 13 12 13 14 16
17 22 23 27 27 33 14 7 10 27 16 39 41 37 34 31 25 23 22 45 44 41 37 33 29 29 23 17 17 14 13 13 11 6 5 4 3 1 2 5 7 9 13 15 17 19 21 21 21
25 9 15 16 22 14 18 9 8 29 12 41 39 35 31 26 26 22 35 38 37 33 30 27 24 26 18 17 17 14 16 15 11 7 4 2 1 3 5 6 8 10 11 13 14 13 12 14 15
7 6 8 11 7 13 8 12 8 29 23 33 39 34 30 28 30 25 26 27 27 26 25 20 15 19 20 16 16 17 17 14 11 8 5 2 4 7 8 9 11 11 11 12 12 12 14 16 18
6 9 9 8 10 6 9 6 10 17 26 28 35 34 28 25 23 27 24 23 25 25 24 21 19 19 19 20 19 20 19 15 11 6 3 1 5 8 9 10 11 11 11 12 13 14 17 20 21
9 6 8 8 7 9 10 9 8 18 15 26 36 37 32 31 29 31 27 25 23 22 20 18 21 19 20 22 21 20 18 14 11 7 2 1 5 7 10 12 12 13 13 13 15 17 17 19 21
8 12 11 11 15 12 11 9 16 23 10 14 28 33 39 34 31 33 31 30 28 27 24 24 26 24 23 25 24 22 18 13 11 6 2 4 5 8 11 11 13 14 13 14 15 16 17 17 18
16 14 15 11 9 14 18 25 11 17 13 21 25 30 38 36 37 39 37 36 35 34 28 27 29 26 23 24 23 19 15 11 10 7 6 7 6 9 11 12 14 14 13 13 15 16 17 17 17
15 16 11 13 17 8 6 19 19 17 17 34 25 40 39 40 41 45 44 42 40 39 36 32 32 29 24 25 25 21 17 17 13 11 11 9 8 11 13 14 15 14 15 15 15 14 14 17 15
12 10 13 16 6 7 5 6 6 7 8 5 13 35 38 45 43 49 48 47 45 41 38 32 33 32 28 28 29 25 24 22 17 15 13 10 10 13 13 15 16 18 19 19 18 17 16 18 19
9 8 7 6 6 5 15 1 8 8 8 13 11 18 44 45 45 49 54 51 47 44 41 37 33 35 32 31 30 28 27 23 20 17 14 13 10 13 13 16 19 20 22 23 21 19 17 17 18
7 5 8 6 3 6 14 7 8 6 12 10 20 31 32 43 40 48 55 53 51 46 43 40 36 35 35 33 33 30 27 24 20 20 20 14 13 13 13 15 17 20 23 25 23 21 20 20 19
4 3 3 4 3 8 8 9 14 8 9 9 13 31 38 42 39 39 52 55 52 49 47 45 42 38 36 36 37 34 28 26 23 23 18 15 15 13 14 15 17 19 22 23 23 22 21 21 21
7 8 6 8 4 8 7 7 15 14 25 31 2 22 38 44 40 32 42 54 52 53 53 50 46 39 33 34 38 33 32 28 26 24 22 20 18 15 16 19 20 22 25 26 24 24 24 23 22
8 11 8 5 5 3 5 9 17 22 12 22 10 18 22 25 23 21 31 43 47 49 52 51 46 40 33 32 30 34 35 32 28 25 23 21 18 19 20 21 22 23 24 24 24 24 24 23 23
6 10 4 1 8 9 8 8 9 13 13 9 10 16 21 20 16 14 15 11 16 51 51 47 44 42 37 34 27 21 23 30 29 26 23 21 21 21 22 22 24 25 26 26 25 25 26 26 26
3 13 6 5 5 6 3 6 1 4 4 6 7 21 24 19 14 10 8 6 11 24 43 48 44 41 38 31 23 19 19 26 26 23 22 23 21 21 23 25 26 27 28 27 27 27 27 28 29
12 4 8 4 7 5 8 11 8 4 1 19 12 22 21 15 15 14 11 7 6 16 37 45 40 38 32 24 17 16 18 21 22 21 21 20 21 23 25 26 28 29 29 28 28 29 28 29 32
Wind_Direction
307 325 328 305 21 127 226 158 141 108 275 223 112 77 82 66 108 128 141 153 141 140 138 140 142 146 147 143 135 127 126 128 130 128 125 123 117 107 100 96 92 92 100 104 98 85 77 74 70
300 287 295 288 159 294 266 131 130 189 225 109 93 94 69 74 107 126 127 138 146 141 138 139 141 143 147 146 143 137 133 133 134 133 130 127 125 122 115 106 98 95 97 100 86 67 56 59 68
301 234 247 172 215 230 259 135 157 218 212 205 104 80 76 121 114 137 134 143 148 140 138 136 140 142 144 145 144 141 139 140 141 137 134 137 139 139 140 133 111 103 126 148 51 12 18 34 57
277 254 246 160 264 272 240 145 200 260 221 113 102 70 95 117 125 128 136 142 147 138 135 132 134 139 143 147 148 149 150 153 157 159 164 171 176 182 189 194 190 201 228 233 253 289 318 336 355
277 265 248 246 267 273 277 170 147 193 168 109 99 108 111 119 129 127 148 134 129 137 137 133 134 135 137 141 145 150 155 162 169 178 188 202 217 228 239 248 251 257 268 276 277 279 288 297 310
273 239 303 262 270 266 276 273 149 148 115 105 98 104 117 133 134 142 158 146 134 140 143 141 138 137 137 137 137 139 144 149 156 166 179 198 227 253 266 268 271 273 277 280 286 290 294 298 302
226 357 260 280 283 296 288 265 144 136 128 126 130 124 136 144 145 153 158 147 121 137 146 145 143 143 144 143 140 138 136 132 130 130 124 115 104 19 336 309 292 288 288 289 289 292 298 303 308
246 173 282 273 282 282 290 319 164 143 141 138 129 150 156 155 152 163 157 145 145 130 137 145 138 137 143 144 141 139 137 134 132 126 124 116 98 77 50 17 340 333 323 314 305 302 307 313 314
241 245 264 264 275 281 308 328 178 143 126 139 160 150 150 150 152 157 159 160 157 146 145 146 136 125 136 139 145 145 140 131 124 118 116 101 132 87 7 359 346 337 336 326 317 325 330 331 345
209 204 241 243 268 284 300 327 149 119 115 117 125 141 150 156 165 162 168 169 169 159 153 141 130 134 127 107 119 116 124 123 103 97 74 57 36 36 343 342 3 348 341 333 333 336 323 320 327
236 238 260 269 276 293 301 312 335 129 113 128 135 146 156 163 172 176 174 175 175 162 152 135 140 123 132 105 107 100 110 99 85 144 149 141 188 173 286 306 317 305 329 348 338 319 315 316 315
248 246 248 262 271 284 287 302 320 187 152 143 145 151 159 169 177 175 175 170 168 156 146 145 152 140 135 130 131 133 119 119 150 158 217 190 189 181 219 234 242 254 279 292 284 280 297 283 292
234 245 251 251 275 272 277 285 293 310 158 158 155 156 164 172 183 184 165 161 163 153 155 158 156 155 153 144 151 148 160 175 204 238 205 194 215 231 242 251 245 246 250 263 265 270 272 274 277
260 249 256 254 231 261 277 268 290 285 209 155 156 161 167 176 183 177 186 153 153 154 162 162 163 168 179 186 192 195 191 193 218 211 163 172 143 323 302 285 280 265 263 268 272 273 272 274 278
268 275 257 254 244 249 264 284 266 272 185 150 157 162 171 179 181 165 160 152 157 164 171 169 175 185 189 192 186 193 189 203 205 180 158 138 57 28 2 340 309 309 310 306 303 296 285 280 275
289 291 257 257 255 234 205 249 259 269 168 151 158 166 177 185 183 169 160 170 175 179 181 182 202 193 187 190 188 175 176 189 190 176 160 101 9 18 360 348 336 334 327 321 315 302 297 295 296
267 244 266 272 257 241 183 229 258 265 163 157 160 169 176 182 177 178 178 178 185 194 195 206 208 199 188 179 181 177 185 186 185 192 141 27 1 7 356 346 339 336 332 326 319 317 313 310 307
243 259 247 251 261 259 251 232 246 243 223 167 165 172 182 187 179 179 182 186 193 202 203 216 208 200 185 182 184 177 186 186 192 198 175 309 348 356 355 349 342 337 334 333 328 322 317 315 313
249 236 254 226 231 223 264 245 218 236 188 225 174 176 184 188 184 182 185 188 189 195 199 202 200 205 194 187 187 182 187 196 201 218 243 281 323 344 351 350 347 342 335 333 329 324 325 327 328
247 255 265 283 268 217 224 232 240 207 223 203 211 189 188 192 185 179 184 189 195 195 201 205 205 210 199 192 192 190 198 196 218 231 257 270 303 330 343 348 352 349 342 334 328 329 328 329 331
239 231 248 249 274 267 225 241 241 206 214 225 217 208 199 195 187 182 184 190 193 195 200 206 208 211 202 193 195 190 192 200 216 232 250 261 302 323 340 339 345 351 348 340 333 325 319 320 326
253 257 245 240 248 245 157 262 244 188 196 225 214 202 200 202 197 188 188 191 194 199 201 206 209 211 206 198 203 204 205 209 219 227 235 270 306 315 314 329 334 346 345 338 329 323 317 309 312
241 275 271 268 248 293 287 95 257 179 208 228 247 225 208 206 201 193 193 196 199 201 203 206 209 214 209 206 205 204 205 213 221 223 240 264 275 294 311 321 334 335 334 332 326 319 313 310 309
243 250 293 290 216 248 246 186 253 229 208 218 229 239 220 204 202 200 197 197 197 201 204 206 211 213 214 209 212 213 216 211 209 221 238 252 274 285 300 312 314 316 321 323 318 317 316 312 311
183 156 302 311 281 225 235 251 243 259 238 209 221 236 226 209 199 194 191 190 196 200 205 209 210 211 211 208 214 219 212 210 217 232 244 259 271 278 282 299 297 301 311 316 314 311 309 309 309
238 175 182 219 219 256 274 258 257 237 261 269 292 268 212 204 195 191 195 195 202 207 205 205 206 209 209 212 213 211 222 220 220 233 247 259 267 279 286 291 298 309 317 318 315 311 309 307 307
243 246 210 184 267 296 249 277 262 253 250 243 144 127 132 141 134 130 180 197 194 196 205 205 205 206 209 217 214 219 225 228 233 242 249 257 270 280 288 294 303 308 310 311 309 307 306 304 305
188 235 235 264 201 245 258 267 265 312 205 151 126 122 116 117 121 129 136 125 184 201 205 206 206 206 206 213 211 220 233 228 229 240 253 263 273 282 289 294 297 305 311 312 310 307 307 304 303
262 271 212 147 178 196 227 262 119 343 55 358 143 133 126 123 124 137 130 136 112 187 202 201 200 201 201 209 212 223 234 220 229 241 250 260 271 285 291 295 302 308 312 312 307 304 301 296 297
305 286 349 215 255 204 194 249 276 348 146 231 164 130 138 141 164 146 155 165 124 172 194 194 194 198 197 203 220 227 221 228 239 248 258 275 286 290 295 297 300 305 307 307 304 301 297 291 291